Regional Weather Roundup
Issued by NWS

Home | Current Version | Previous Version | Text Only | Print | Product List | Glossary Off
Versions: 1 2 3 4 5 6 7 8 9 10 11 12 13 14 15 16 17 18 19 20 21 22 23 24 25 26 27 28 29 30 31 32 33 34 35 36 37 38 39 40 41 42 43 44 45 46 47 48 49 50

000
ASUS45 KPSR 301100
RWRAZ

ARIZONA HOURLY REGIONAL WEATHER ROUNDUP
NATIONAL WEATHER SERVICE PHOENIX AZ
400 AM MST SAT MAY 30 2015

NOTE: FAIR INDICATES FEW OR NO CLOUDS BELOW 12,000 FEET WITH NO
SIGNIFICANT WEATHER AND/OR OBSTRUCTIONS TO VISIBILITY.

AZZ001>003-036-301200-
NORTHWEST ARIZONA

CITY           SKY/WX    TMP DP  RH WIND       PRES   REMARKS
KINGMAN        CLEAR     61  15  16 SE13      30.02S
$$

AZZ004>008-015-016-018-301200-
NORTH CENTRAL ARIZONA

CITY           SKY/WX    TMP DP  RH WIND       PRES   REMARKS
GRAND CANYON   CLEAR     45  37  73 CALM      30.26S
WILLIAMS       CLEAR     45  30  57 S10       30.32S
PRESCOTT       CLEAR     55  29  36 S9        30.15S
FLAGSTAFF      NOT AVBL
PAYSON         CLEAR     64  32  29 NE5       30.16S
PAGE           PTCLDY    66  43  43 W3        30.13S
$$

AZZ009>014-017-301200-
NORTHEAST ARIZONA

CITY           SKY/WX    TMP DP  RH WIND       PRES   REMARKS
WINSLOW        NOT AVBL
SAINT JOHNS    CLEAR     52  28  39 S3        30.20S
WINDOW ROCK    CLEAR     44  32  62 CALM      30.29R
$$

AZZ023-301200-
GREATER PHOENIX AREA

CITY           SKY/WX    TMP DP  RH WIND       PRES   REMARKS
PHOENIX        CLEAR     81  34  18 N5        29.86R
LUKE AFB       CLEAR     70  38  31 NW5       29.86R
DEER VALLEY    CLEAR     71  31  22 N3        29.88R
SCOTTSDALE     CLEAR     73  41  31 CALM      29.90R
$$

AZZ027-028-301200-
SOUTHWEST MARICOPA COUNTY AND PINAL COUNTY

CITY           SKY/WX    TMP DP  RH WIND       PRES   REMARKS
CASA GRANDE    CLEAR     68  36  30 CALM      29.89S
GILA BEND      FAIR      71  39  31 SE6       29.86R
$$

AZZ503-504-507>509-301200-
SOUTHEAST ARIZONA

CITY           SKY/WX    TMP DP  RH WIND       PRES   REMARKS
TUCSON         CLEAR     71  37  28 SE7       30.00R
DAVIS-MONTHAN  PTCLDY    68  35  29 S7        29.98S
NOGALES        CLEAR     62  33  33 S5        30.07R
SIERRA VISTA   CLEAR     65  29  25 W10       30.11S
SAFFORD        CLEAR     64  22  20 SE7       29.98R
$$

AZZ020-021-025-026-031-301200-
SOUTHWEST ARIZONA

CITY           SKY/WX    TMP DP  RH WIND       PRES   REMARKS
YUMA           NOT AVBL
$$

CAZ031-033-041-043-047-048-061-301200-
SOUTHERN CALIFORNIA

CITY           SKY/WX    TMP DP  RH WIND       PRES   REMARKS
DOWNTOWN L.A.  CLOUDY    59  57  93 CALM      29.91S FOG
L.A. AIRPORT     N/A     57  57 100 CALM      29.92S FOG
SAN DIEGO      CLOUDY    62  56  80 CALM      29.92F
BURBANK        CLEAR     60  55  83 CALM      29.90S
ONTARIO        PTCLDY    60  55  83 CALM      29.90F
RIVERSIDE      CLEAR     61  56  83 CALM      29.91F
PALM SPRINGS   CLEAR     79  49  34 CALM      29.84S
EL CENTRO NAS  CLEAR     65  48  54 E3        29.81S
IMPERIAL       CLEAR     67  53  61 E7        29.79S
BLYTHE         CLEAR     71  37  28 N6        29.82S
$$

NVZ020-UTZ003-301200-
SOUTHERN NEVADA-UTAH

CITY           SKY/WX    TMP DP  RH WIND       PRES   REMARKS
LAS VEGAS      NOT AVBL
SALT LAKE CITY PTCLDY    58  44  60 S7        30.10S
$$

NMZ009-TXZ055-301200-
NEW MEXICO-WEST TEXAS

CITY           SKY/WX    TMP DP  RH WIND       PRES   REMARKS
ALBUQUERQUE    PTCLDY    59  45  59 E18G30    30.25R
EL PASO        MOCLDY    70  40  33 N13       30.05R
$$


........................KEY........................
SKY/WX - SKY CONDITION/WEATHER
TMP    - TEMPERATURE IN FAHRENHEIT
DP     - DEW POINT IN FAHRENHEIT
RH     - RELATIVE HUMIDITY IN PERCENT
WIND   - DIRECTION AND SPEED IN MILES PER HOUR (MPH)
VRB    - VARIABLE WIND DIRECTION
PRES   - MEAN SEA LEVEL PRESSURE IN INCHES OF MERCURY
         F - FALLING PRESSURE   R - RISING PRESSURE
         S - STEADY PRESSURE
VSB    - VISIBILITY IN MILES
HX     - HEAT INDEX IN FAHRENHEIT
WCI    - WIND CHILL INDEX IN FAHRENHEIT
TC     - TEMPERATURE IN CELSIUS WHICH IS ALSO KNOWN AS
         TEMPERATURE IN CENTIGRADE
AFB    - AIR FORCE BASE
         LUKE AFB IS LUKE AIR FORCE BASE
         DAVIS-MONTHAN IS DAVIS-MONTHAN AIR FORCE BASE
NAS    - NAVAL AIR STATION
         EL CENTRO NAS IS EL CENTRO NAVAL AIR STATION
N/A    - NOT AVAILABLE



USA.gov is the U.S. government's official web portal to all federal, state and local government web resources and services.